Lawrence, MA

9:19 PM EST on November 14, 2019 (GMT -0500)
Lawrence Municipal

Weather History for KLWM - August, 2019

Change the Weather History Date:

Thursday, August 22, 2019

  Actual Average Record
Temperature  
Mean Temperature 76 °F -  
Max Temperature 87 °F 78 °F 91 °F (1942)
Min Temperature 66 °F 56 °F 45 °F (1982)
Cooling Degree Days 12    
Growing Degree Days 26 (Base 50)    
Moisture  
Dew Point 65 °F    
Average Humidity 70    
Maximum Humidity 93    
Minimum Humidity 46    
Precipitation  
Precipitation 0.00 in - - ()
Sea Level Pressure  
Sea Level Pressure 29.84 in    
Wind  
Wind Speed 7 mph (WSW)    
Max Wind Speed 13 mph    
Max Gust Speed 20 mph    
Visibility 10 miles    
Events      
Averages and records for this station are not official NWS values.
T = Trace of Precipitation, MM = Missing Value Source: NWS Daily Summary

Daily Weather History Graph

Daily Weather History Graph

Search for Another Location

Airport or City:

Astronomy

Aug. 22, 2019 Rise Set
Actual Time 5:58 AM EDT 7:35 PM EDT
Civil Twilight 5:28 AM EDT 8:05 PM EDT
Nautical Twilight 4:52 AM EDT 8:41 PM EDT
Astronomical Twilight 4:13 AM EDT 9:20 PM EDT
Moon 11:14 PM EDT (8/22) 12:39 PM EDT (8/22)
Length of Visible Light 14h 37m
Length of Day
13h 37m
Waning Gibbous, 60% of the Moon is Illuminated
Aug 22
Waning Gibbous
Aug 23
Last Quarter
Aug 30
New
Sep 5
First Quarter
Sep 14
Full

Hourly Weather History & Observations

Time (EDT) Temp. Heat Index Dew Point Humidity Pressure Visibility Wind Dir Wind Speed Gust Speed Precip Events Conditions
12:54 AM 71.1 °F - 68.0 °F 90% 29.84 in 10.0 mi WSW 8.1 mph - N/A   Clear
1:54 AM 70.0 °F - 66.9 °F 90% 29.83 in 10.0 mi SW 6.9 mph - N/A   Clear
2:54 AM 68.0 °F - 66.0 °F 93% 29.83 in 10.0 mi SSW 4.6 mph - N/A   Clear
3:54 AM 68.0 °F - 66.0 °F 93% 29.83 in 10.0 mi SSW 5.8 mph - N/A   Clear
4:54 AM 66.9 °F - 64.9 °F 93% 29.84 in 10.0 mi South 3.5 mph - N/A   Clear
5:54 AM 66.9 °F - 64.9 °F 93% 29.84 in 10.0 mi Calm Calm - N/A   Clear
6:54 AM 68.0 °F - 66.0 °F 93% 29.86 in 10.0 mi South 4.6 mph - N/A   Clear
7:54 AM 71.1 °F - 66.9 °F 87% 29.86 in 10.0 mi WSW 3.5 mph - N/A   Clear
8:54 AM 73.9 °F - 68.0 °F 82% 29.86 in 10.0 mi SSW 4.6 mph - N/A   Mostly Cloudy
9:54 AM 77.0 °F - 71.1 °F 82% 29.86 in 10.0 mi SW 5.8 mph - N/A   Clear
10:54 AM 81.0 °F 85.2 °F 72.0 °F 74% 29.85 in 10.0 mi Variable 4.6 mph - N/A   Clear
11:54 AM 82.9 °F 88.0 °F 72.0 °F 69% 29.84 in 10.0 mi SW 6.9 mph - N/A   Clear
12:54 PM 84.9 °F 91.4 °F 73.0 °F 67% 29.82 in 10.0 mi SW 6.9 mph - N/A   Partly Cloudy
1:54 PM 87.1 °F 92.8 °F 71.1 °F 59% 29.81 in 10.0 mi SW 10.4 mph - N/A   Scattered Clouds
2:54 PM 86.0 °F 89.4 °F 68.0 °F 55% 29.81 in 10.0 mi West 10.4 mph - N/A   Scattered Clouds
3:54 PM 86.0 °F 88.2 °F 66.0 °F 51% 29.81 in 10.0 mi WSW 10.4 mph 18.4 mph N/A   Clear
4:54 PM 86.0 °F 86.8 °F 63.0 °F 46% 29.81 in 10.0 mi West 12.7 mph - N/A   Clear
5:54 PM 84.0 °F 84.4 °F 61.0 °F 46% 29.81 in 10.0 mi WSW 10.4 mph - N/A   Clear
6:54 PM 82.0 °F 82.7 °F 61.0 °F 49% 29.82 in 10.0 mi West 10.4 mph 19.6 mph N/A   Clear
7:54 PM 80.1 °F 81.1 °F 61.0 °F 52% 29.83 in 10.0 mi West 8.1 mph - N/A   Partly Cloudy
8:54 PM 78.1 °F - 59.0 °F 52% 29.85 in 10.0 mi WSW 11.5 mph - N/A   Partly Cloudy
9:54 PM 75.9 °F - 55.9 °F 50% 29.87 in 10.0 mi West 6.9 mph - N/A   Clear
10:54 PM 75.0 °F - 55.0 °F 50% 29.87 in 10.0 mi West 6.9 mph - N/A   Mostly Cloudy
11:54 PM 73.9 °F - 55.0 °F 52% 29.89 in 10.0 mi West 4.6 mph - N/A   Overcast